Port Columbus International Airport
KCMH : now visible

Airfield :











YOU CAN JOIN US ON...

 
LOGIN :

Register | Disclaimer

   EN    FR    IT 

 









Legend :    VFR   Marginal VFR   IFR   Intensive IFR   Very Intensive IFR
Visi :
Ceiling :
>= 8 km
>= 3000ft
5 to 8 km
1000 to 3000 ft
1500m to 5 km
500 to 1000 ft
800 to 1500m
200 to 500 ft
< 800m
< 200 ft
Symbols :   Thunderstorms  Fog  Heavy snow  Heavy precipitations  Wind > 20 kt







- Airport Elevation : 815 ft
- IATA code : CMH


KCMH - Port Columbus International

CURRENT METAR :
  • 210851Z 29003KT 10SM CLR 26/22 A2992 RMK AO2 SLP123 T02560217 55004

EXPIRED METARs :
  • 210751Z 18003KT 10SM CLR 26/22 A2991 RMK AO2 SLP120 T02610222
  • 210651Z 18004KT 10SM CLR 26/22 A2992 RMK AO2 SLP121 T02610222

TAF KCMH
Valid from the 21 at 06:00 until the 22 at 06:00 UTC


210534Z 2106/2206 21005KT P6SM SKC
FM211500 24008KT P6SM SCT040
FM212100 24007KT P6SM VCTS BKN035CB
TEMPO 2122/2202 -TSRA SCT025 BKN035CB
FM220400 04004KT P6SM VCSH BKN025 OVC035
KZID FIR / North America



MET'MAP, your aeronautical weather chart ! - Copyright ORBIFLY December 2007 - Disclaimer

ORBIFLY MET'MAP TEAM :

Programming & Development : Alexandra Zaïnal
Concept & Development : Baudouin d'Aumeries
Co-Development & Prog : Marc-Olivier Méhu
Technical & hardware support : Manuel Goepfert

Contact : metmap@orbifly.com




SOURCES & CREDITS :

   NOAA       Earth
Advisory